Weather History for Meridian NAS, MS

Change the Weather History Date:

Tuesday, February 5, 2013

  Actual Average Record
Temperature  
Mean Temperature 54 °F -  
Max Temperature 68 °F 56 °F 80 °F (2008)
Min Temperature 41 °F 38 °F 19 °F (2009)
Degree Days  
Heating Degree Days 10    
Growing Degree Days 4 (Base 50)    
Moisture  
Dew Point 49 °F    
Average Humidity 85    
Maximum Humidity 100    
Minimum Humidity 63    
Precipitation  
Precipitation 0.00 in - - ()
Sea Level Pressure  
Sea Level Pressure 30.04 in    
Wind  
Wind Speed 1 mph (NNW)    
Max Wind Speed 8 mph    
Max Gust Speed -    
Visibility 7 miles    
Events Fog    
Averages and records for this station are not official NWS values.
T = Trace of Precipitation, MM = Missing Value Source: NWS Daily Summary

Daily Weather History Graph

Daily Weather History Graph

Search for Another Location

Airport:

Trip Planner

Search our weather history database for the weather conditions in past years. The results will help you decide how hot, cold, wet, or windy it might be!

Date:

Astronomy

Feb. 05, 2013 Rise Set
Actual Time 6:45 AM CST 5:31 PM CST
Civil Twilight 6:20 AM CST 5:56 PM CST
Nautical Twilight 5:50 AM CST 6:26 PM CST
Astronomical Twilight 5:22 AM CST 6:54 PM CST
Moon 2:21 AM CST (2/5) 12:54 PM CST (2/5)
Length of Visible Light 11h 36m
Length of Day
10h 45m
Waning Crescent, 26% of the Moon is Illuminated
Feb 5
Waning Crescent
Feb 10
New
Feb 17
First Quarter
Feb 25
Full
Mar 4
Last Quarter

Hourly Weather History & Observations

Time (CST) Temp. Dew Point Humidity Pressure Visibility Wind Dir Wind Speed Gust Speed Precip Events Conditions
12:56 AM 46.9 °F 39.9 °F 77% 30.01 in 10.0 mi Calm Calm - N/A   Partly Cloudy
1:56 AM 46.0 °F 39.0 °F 76% 30.00 in 10.0 mi Calm Calm - N/A   Clear
2:56 AM 44.1 °F 39.9 °F 85% 29.99 in 10.0 mi Calm Calm - N/A   Partly Cloudy
3:56 AM 42.1 °F 39.0 °F 89% 29.99 in 10.0 mi Calm Calm - N/A   Clear
4:56 AM 42.1 °F 39.0 °F 89% 30.01 in 10.0 mi Calm Calm - N/A   Clear
5:56 AM 42.1 °F 39.0 °F 89% 30.02 in 10.0 mi Calm Calm - N/A   Clear
5:58 AM 42.8 °F 39.2 °F 87% 29.98 in 10.0 mi Calm Calm - N/A   Partly Cloudy
6:56 AM 41.0 °F 39.0 °F 93% 30.04 in 10.0 mi Calm Calm - N/A   Scattered Clouds
7:54 AM 46.4 °F 42.8 °F 87% 30.03 in 10.0 mi Calm Calm - N/A   Overcast
7:56 AM 46.9 °F 43.0 °F 86% 30.06 in 10.0 mi Calm Calm - N/A   Overcast
8:05 AM 48.2 °F 44.6 °F 87% 30.03 in 10.0 mi Calm Calm - N/A   Overcast
8:18 AM 48.2 °F 44.6 °F 87% 30.03 in 10.0 mi Calm Calm - N/A   Overcast
8:56 AM 51.1 °F 46.0 °F 83% 30.06 in 10.0 mi Calm Calm - N/A   Overcast
9:56 AM 55.9 °F 48.9 °F 77% 30.07 in 10.0 mi Calm Calm - N/A   Overcast
10:56 AM 59.0 °F 51.1 °F 75% 30.08 in 10.0 mi WNW 5.8 mph - N/A   Overcast
11:35 AM 62.6 °F 51.8 °F 68% 30.04 in 10.0 mi Calm Calm - N/A   Overcast
11:56 AM 64.0 °F 53.1 °F 67% 30.06 in 10.0 mi Calm Calm - N/A   Overcast
12:56 PM 64.9 °F 54.0 °F 68% 30.04 in 10.0 mi NW 8.1 mph - N/A   Overcast
1:56 PM 64.0 °F 54.0 °F 70% 30.03 in 10.0 mi North 4.6 mph - N/A   Overcast
2:56 PM 68.0 °F 55.0 °F 63% 30.02 in 10.0 mi North 4.6 mph - N/A   Overcast
3:10 PM 66.2 °F 55.4 °F 68% 29.99 in 10.0 mi North 6.9 mph - N/A   Overcast
3:35 PM 66.2 °F 55.4 °F 68% 29.98 in 10.0 mi Calm Calm - N/A   Overcast
3:56 PM 66.0 °F 55.0 °F 68% 30.01 in 10.0 mi WNW 4.6 mph - N/A   Partly Cloudy
4:56 PM 64.9 °F 55.0 °F 70% 30.01 in 10.0 mi NNW 5.8 mph - N/A   Partly Cloudy
5:56 PM 60.1 °F 54.0 °F 80% 30.03 in 10.0 mi North 5.8 mph - N/A   Scattered Clouds
6:56 PM 59.0 °F 54.0 °F 83% 30.05 in 10.0 mi Calm Calm - N/A   Overcast
7:56 PM 57.9 °F 54.0 °F 87% 30.07 in 10.0 mi Calm Calm - N/A   Overcast
8:56 PM 55.9 °F 54.0 °F 93% 30.09 in 9.0 mi Calm Calm - N/A   Mostly Cloudy
9:48 PM 53.6 °F 51.8 °F 94% 30.07 in 1.8 mi North 3.5 mph - N/A   Clear
9:52 PM 53.6 °F 51.8 °F 94% 30.06 in 0.8 mi Calm Calm - N/A   Clear
9:56 PM 52.0 °F 51.1 °F 97% 30.10 in 0.8 mi Calm Calm - N/A   Scattered Clouds
10:06 PM 51.8 °F 50.0 °F 94% 30.06 in 0.5 mi NNE 3.5 mph - N/A Fog Fog
10:14 PM 51.8 °F 51.8 °F 100% 30.07 in 1.0 mi Calm Calm - N/A   Mist
10:17 PM 51.8 °F 51.8 °F 100% 30.06 in 2.5 mi Calm Calm - N/A   Partly Cloudy
10:25 PM 51.8 °F 51.8 °F 100% 30.06 in 4.0 mi Calm Calm - N/A   Partly Cloudy
10:32 PM 51.8 °F 51.8 °F 100% 30.06 in 1.5 mi Calm Calm - N/A   Partly Cloudy
10:39 PM 51.8 °F 50.0 °F 94% 30.06 in 0.8 mi Calm Calm - N/A   Mist
10:44 PM 51.8 °F 48.2 °F 88% 30.06 in 0.2 mi Calm Calm - N/A Fog Fog
10:56 PM 51.1 °F 48.9 °F 92% 30.09 in 0.2 mi Calm Calm - N/A Fog Fog
11:26 PM 50.0 °F 48.2 °F 94% 30.06 in 0.2 mi Calm Calm - N/A Fog Fog
11:36 PM 50.0 °F 48.2 °F 94% 30.06 in 0.2 mi Calm Calm - N/A Fog Fog
11:44 PM 50.0 °F 48.2 °F 94% 30.06 in 0.2 mi Calm Calm - N/A Fog Fog
11:56 PM 48.9 °F 48.0 °F 97% 30.10 in 0.2 mi Calm Calm - N/A Fog Fog